Tracking 29892 objects as of 21-Nov-2024
HD Live streaming from Space Station
objects crossing your sky now

ONEWEB-0148

Track ONEWEB-0148 now!
10-day predictions
ONEWEB-0148 is classified as:


NORAD ID: 48059
Int'l Code: 2021-025T
Perigee: 1,215.6 km
Apogee: 1,218.2 km
Inclination: 87.9 °
Period: 109.6 minutes
Semi major axis: 7587 km
RCS: Unknown
Launch date: March 25, 2021
Source: United States (US)
Launch site: VOSTOCHNY COSMODROME (VOSTO)
Your satellite tracking list
Your tracking list is empty




NASA's NSSDC Master Catalog

Two Line Element Set (TLE):
1 48059U 21025T   24325.27720371  .00000021  00000-0  22661-4 0  9995
2 48059  87.8924  74.3928 0001774 127.8056 232.3234 13.13470732178272
Source of the keplerian elements: AFSPC